FW4383 Weather Reports


Display with metric or nautical units.
time (UTC)temp
F
wind
direction
speed
MPH
gust
MPH
rain 1hr
in
rain 24hr
in
rain mn
in
humidity
%
barometer
mb
20260508044533 62 289 7.0 13.0 0.00 0.00 0.00 43 1018.2
20260508043033 62 290 7.0 14.0 0.00 0.00 0.00 42 1018.2
20260508041644 63 278 7.0 16.0 0.00 0.00 0.00 41 1018.2
20260508040031 63 273 7.0 15.0 0.00 0.00 0.00 41 1018.1
20260508034538 63 277 5.0 10.0 0.00 0.00 0.00 39 1018.0
20260508033035 63 283 5.0 15.0 0.00 0.00 0.00 37 1017.8
20260508031535 64 288 5.0 13.0 0.00 0.00 0.00 35 1017.6
20260508023036 66 285 7.0 14.0 0.00 0.00 0.00 29 1017.4
20260508021534 67 281 7.0 15.0 0.00 0.00 0.00 27 1017.3
20260508020034 68 282 8.0 16.0 0.00 0.00 0.00 26 1017.3
20260508014535 69 285 10.0 19.0 0.00 0.00 0.00 26 1017.2
20260508013033 70 282 8.0 16.0 0.00 0.00 0.00 25 1017.3
20260508011534 70 279 9.0 17.0 0.00 0.00 0.00 24 1017.4
20260508010036 70 278 9.0 20.0 0.00 0.00 0.00 24 1017.5
20260508004533 70 285 9.0 18.0 0.00 0.00 0.00 23 1017.4
20260508001534 71 288 9.0 19.0 0.00 0.00 0.00 23 1017.4
20260508000039 71 283 8.0 15.0 0.00 0.00 0.00 22 1017.3
20260507234536 70 277 10.0 22.0 0.00 0.00 0.00 21 1017.3
20260507224530 70 283 12.0 22.0 0.00 0.00 0.00 27 1017.6
20260507223034 70 275 14.0 25.0 0.00 0.00 0.00 28 1017.6
20260507221536 70 278 12.0 23.0 0.00 0.00 0.00 30 1018.0
20260507220037 70 291 10.0 22.0 0.00 0.00 0.00 32 1018.1
20260507213143 68 283 11.0 20.0 0.00 0.00 0.00 38 1018.5
20260507210035 68 284 11.0 21.0 0.00 0.00 0.00 40 1018.6
20260507204533 67 282 12.0 22.0 0.00 0.00 0.00 41 1018.7
20260507203035 67 290 11.0 23.0 0.00 0.00 0.00 42 1018.7
20260507201535 66 283 12.0 26.0 0.00 0.00 0.00 42 1018.9
20260507194534 65 273 12.0 24.0 0.00 0.00 0.00 44 1019.4
20260507193037 64 279 14.0 27.0 0.00 0.00 0.00 48 1019.5
20260507191529 64 273 12.0 23.0 0.00 0.00 0.00 50 1019.6
20260507184535 62 261 7.0 15.0 0.00 0.00 0.00 55 1020.7
20260507181608 61 255 9.0 18.0 0.00 0.00 0.00 56 1020.7
20260507180045 60 249 8.0 19.0 0.00 0.00 0.00 58 1020.7
20260507180035 59 256 12.0 22.0 0.00 0.00 0.00 60 1020.7
20260507173034 58 267 14.0 24.0 0.00 0.00 0.00 61 1020.6
20260507171652 58 258 11.0 22.0 0.00 0.00 0.00 63 1020.9
20260507170033 58 280 11.0 21.0 0.00 0.00 0.00 64 1020.9
20260507164606 57 285 11.0 21.0 0.00 0.00 0.00 67 1021.0
20260507163031 56 281 11.0 23.0 0.00 0.00 0.00 68 1021.1
20260507161539 56 277 10.0 21.0 0.00 0.00 0.00 69 1021.2
20260507160111 55 272 11.0 23.0 0.00 0.00 0.00 70 1021.4
20260507154532 55 287 9.0 19.0 0.00 0.00 0.00 73 1021.5
20260507151535 54 287 8.0 16.0 0.00 0.00 0.00 74 1021.6
20260507150045 54 292 8.0 17.0 0.00 0.00 0.00 76 1021.7
20260507144534 53 298 7.0 16.0 0.00 0.00 0.00 78 1021.7
20260507143109 52 298 8.0 16.0 0.00 0.00 0.00 80 1021.7
20260507141535 52 298 7.0 16.0 0.00 0.00 0.00 80 1021.6
20260507140036 52 299 8.0 17.0 0.00 0.00 0.00 80 1021.3
20260507134535 52 285 8.0 20.0 0.00 0.00 0.00 80 1021.0
20260507133031 52 292 8.0 17.0 0.00 0.00 0.00 81 1020.9
20260507131536 52 286 9.0 18.0 0.00 0.00 0.00 80 1020.9
20260507124530 53 285 9.0 16.0 0.00 0.00 0.00 80 1020.8
20260507121536 53 280 8.0 20.0 0.00 0.00 0.00 79 1021.0
20260507120036 53 279 9.0 18.0 0.00 0.00 0.00 78 1021.0
20260507114534 54 272 8.0 17.0 0.00 0.00 0.00 78 1021.0
20260507113033 54 267 8.0 17.0 0.00 0.00 0.00 79 1020.9
20260507111536 54 274 7.0 14.0 0.00 0.00 0.00 78 1020.9
20260507104536 55 259 6.0 14.0 0.00 0.00 0.00 78 1020.8
20260507103107 55 270 7.0 16.0 0.00 0.00 0.00 78 1020.8
20260507101531 55 275 9.0 17.0 0.00 0.00 0.00 78 1020.8
20260507100107 55 264 8.0 15.0 0.00 0.00 0.00 78 1020.8
20260507094533 55 258 9.0 18.0 0.00 0.00 0.00 78 1020.8
20260507093034 55 263 8.0 18.0 0.00 0.00 0.00 78 1020.8
20260507091641 55 264 7.0 18.0 0.00 0.00 0.00 78 1020.8
20260507090037 56 265 8.0 18.0 0.00 0.00 0.00 77 1021.0
20260507084652 56 265 9.0 22.0 0.00 0.00 0.00 77 1020.9
20260507081536 57 265 10.0 22.0 0.00 0.00 0.00 77 1020.8
20260507080035 57 273 8.0 16.0 0.00 0.00 0.00 78 1020.8
20260507074537 57 267 6.0 16.0 0.00 0.00 0.00 78 1020.8
20260507073037 57 263 7.0 17.0 0.00 0.00 0.00 78 1020.9
20260507071608 57 267 8.0 15.0 0.00 0.00 0.00 78 1021.0
20260507070031 57 267 6.0 14.0 0.00 0.00 0.00 78 1021.2
20260507064537 58 276 5.0 15.0 0.00 0.00 0.00 77 1021.2
20260507063107 58 275 4.0 13.0 0.00 0.00 0.00 76 1021.2
20260507061535 59 266 5.0 13.0 0.00 0.00 0.00 76 1021.2
20260507060037 59 255 7.0 14.0 0.00 0.00 0.00 76 1021.2
20260507054535 59 255 4.0 11.0 0.00 0.00 0.00 75 1021.5
20260507053030 60 249 6.0 14.0 0.00 0.00 0.00 75 1021.5
20260507051610 60 245 6.0 14.0 0.00 0.00 0.00 75 1021.6